Point Lay, AK

8:52 AM AKST on November 24, 2017 (GMT -0900)
Point Lay

Weather History for PPIZ - February, 2012

Change the Weather History Date:

Thursday, February 23, 2012

  Actual Average Record
Temperature  
Mean Temperature -16 °F -  
Max Temperature -10 °F -9 °F 28 °F (2009)
Min Temperature -22 °F -18 °F -40 °F (1998)
Degree Days  
Heating Degree Days 81    
Moisture  
Dew Point -22 °F    
Average Humidity 75    
Maximum Humidity 84    
Minimum Humidity 69    
Precipitation  
Precipitation 0.00 in - - ()
Sea Level Pressure  
Sea Level Pressure 30.41 in    
Wind  
Wind Speed 8 mph (NW)    
Max Wind Speed 10 mph    
Max Gust Speed -    
Visibility 9 miles    
Events Snow    
Averages and records for this station are not official NWS values.
T = Trace of Precipitation, MM = Missing Value Source: NWS Daily Summary

Daily Weather History Graph

Daily Weather History Graph

Search for Another Location

Airport or City:

Trip Planner

Search our weather history database for the weather conditions in past years. The results will help you decide how hot, cold, wet, or windy it might be!

Date:

Astronomy

Feb. 23, 2012 Rise Set
Actual Time 9:46 AM AKST 6:25 PM AKST
Civil Twilight 8:43 AM AKST 7:29 PM AKST
Nautical Twilight 7:33 AM AKST 8:39 PM AKST
Astronomical Twilight 6:22 AM AKST 9:50 PM AKST
Moon 8:47 AM AKST (2/23) 10:35 PM AKST (2/23)
Length of Visible Light 10h 46m
Length of Day
8h 39m
Waxing Crescent, 4% of the Moon is Illuminated
Feb 23
Waxing Crescent
Feb 29
First Quarter
Mar 8
Full
Mar 14
Last Quarter
Mar 22
New

Hourly Weather History & Observations

Time (AKST) Temp. Windchill Dew Point Humidity Pressure Visibility Wind Dir Wind Speed Gust Speed Precip Events Conditions
12:56 AM -10.8 °F -28.6 °F -17.0 °F 74% 30.25 in 9.0 mi NE 9.2 mph - 0.00 in Snow Light Snow
1:56 AM -10.8 °F -27.4 °F -17.0 °F 74% 30.26 in 9.0 mi NNE 8.1 mph - 0.00 in Snow Light Snow
2:56 AM -11.2 °F -23.0 °F -18.4 °F 70% 30.27 in 9.0 mi NNE 4.6 mph - N/A Snow Light Snow
3:56 AM -13.9 °F -32.4 °F -18.9 °F 78% 30.29 in 10.0 mi North 9.2 mph - 0.00 in   Overcast
4:56 AM -13.9 °F -33.5 °F -19.8 °F 75% 30.30 in 10.0 mi North 10.4 mph - N/A   Overcast
5:56 AM -15.0 °F -34.8 °F -20.9 °F 75% 30.31 in 10.0 mi North 10.4 mph - N/A   Mostly Cloudy
6:06 AM -14.8 °F -34.6 °F -20.2 °F 77% 30.30 in 10.0 mi North 10.4 mph - N/A   Scattered Clouds
6:28 AM -14.8 °F -33.5 °F -20.2 °F 77% 30.31 in 10.0 mi North 9.2 mph - N/A   Mostly Cloudy
6:56 AM -15.9 °F -33.5 °F -20.9 °F 78% 30.33 in 10.0 mi North 8.1 mph - N/A   Overcast
7:56 AM -15.9 °F -32.1 °F -22.0 °F 74% 30.35 in 10.0 mi North 6.9 mph - N/A   Mostly Cloudy
8:56 AM -16.6 °F -31.3 °F -20.2 °F 84% 30.35 in 8.0 mi North 5.8 mph - N/A Snow Light Snow
9:09 AM -16.6 °F -31.3 °F -20.2 °F 84% 30.35 in 9.0 mi North 5.8 mph - 0.00 in Snow Light Snow
9:40 AM -16.6 °F -31.3 °F -20.2 °F 84% 30.36 in 8.0 mi North 5.8 mph - 0.00 in Snow Light Snow
9:56 AM -15.0 °F -25.0 °F -20.9 °F 75% 30.38 in 8.0 mi North 3.5 mph - 0.00 in Snow Light Snow
10:56 AM -15.0 °F - -19.8 °F 79% 30.40 in 6.0 mi Calm Calm - 0.00 in Snow Light Snow
11:19 AM -14.8 °F -32.2 °F -20.2 °F 77% 30.39 in 5.0 mi NW 8.1 mph - 0.00 in Snow Light Snow
11:37 AM -14.8 °F -33.5 °F -18.4 °F 84% 30.40 in 5.0 mi NW 9.2 mph - 0.00 in   Haze
11:56 AM -14.8 °F -33.5 °F -20.2 °F 77% 30.40 in 5.0 mi NW 9.2 mph - N/A   Haze
12:56 PM -15.0 °F -33.7 °F -19.8 °F 79% 30.43 in 6.0 mi NW 9.2 mph - 0.00 in   Haze
1:56 PM -15.0 °F -33.7 °F -20.9 °F 75% 30.45 in 6.0 mi WNW 9.2 mph - 0.00 in Snow Light Snow
2:56 PM -14.8 °F -33.5 °F -20.2 °F 77% 30.44 in 8.0 mi WNW 9.2 mph - N/A Snow Light Snow
3:31 PM -16.6 °F -35.7 °F -22.0 °F 76% 30.45 in 9.0 mi WNW 9.2 mph - 0.00 in   Overcast
3:56 PM -15.9 °F -34.8 °F -22.0 °F 74% 30.47 in 10.0 mi WNW 9.2 mph - 0.00 in   Overcast
4:56 PM -17.9 °F -34.5 °F -24.0 °F 74% 30.48 in 10.0 mi WNW 6.9 mph - N/A   Overcast
5:35 PM -18.4 °F -36.6 °F -25.6 °F 70% 30.48 in 10.0 mi WNW 8.1 mph - N/A   Scattered Clouds
5:56 PM -18.9 °F -35.8 °F -24.9 °F 74% 30.50 in 10.0 mi WNW 6.9 mph - N/A   Mostly Cloudy
6:21 PM -18.4 °F -31.4 °F -25.6 °F 70% 30.49 in 8.0 mi West 4.6 mph - N/A   Scattered Clouds
6:56 PM -18.9 °F -32.0 °F -24.9 °F 74% 30.51 in 10.0 mi West 4.6 mph - N/A   Clear
7:56 PM -19.8 °F -33.1 °F -26.0 °F 73% 30.53 in 10.0 mi WSW 4.6 mph - N/A   Partly Cloudy
8:12 PM -20.2 °F -35.5 °F -27.4 °F 69% 30.51 in 2.5 mi WSW 5.8 mph - N/A   Haze
8:19 PM -20.2 °F -37.3 °F -27.4 °F 69% 30.51 in 10.0 mi WSW 6.9 mph - N/A   Partly Cloudy
8:56 PM -20.9 °F -36.4 °F -26.9 °F 74% 30.54 in 10.0 mi WSW 5.8 mph - N/A   Clear
9:56 PM -20.9 °F -39.7 °F -27.9 °F 70% 30.54 in 10.0 mi WSW 8.1 mph - N/A   Clear
10:56 PM -22.9 °F -42.1 °F -28.8 °F 74% 30.56 in 10.0 mi WSW 8.1 mph - N/A   Clear
11:56 PM -22.9 °F -43.4 °F -28.8 °F 74% 30.57 in 10.0 mi WSW 9.2 mph - N/A   Clear